Location: Wildlife_Club
(35.6000°N, 81.4330°W)
Time: 12:57:15
(UTC-04:00)

A-11 Canister half - Pass Details

Date: 25 June 2019
Orbit: 1514 x 1685 km, 47.2° (Epoch: 22 July)

Event Time Altitude Azimuth Distance (km) Brightness Sun altitude
Rises 10:06:53 0° 222° (SW) 4,926 11.4 45.0°
Reaches altitude 10° 10:10:04 10° 220° (SW) 3,933 11.0 45.6°
Maximum altitude 10:20:06 70° 139° (SE) 1,739 10.5 47.7°
Drops below altitude 10° 10:29:52 10° 58° (ENE) 3,842 11.8 49.7°
Sets 10:32:57 0° 57° (ENE) 4,807 12.0 50.3°
